BVG0062 EGBK-EGLF

Flight info

Callsign BVG0062
Flight time 0h 53m
Altitude 12000
Route DTY M605 SILVA M183 CPT
Aircraft M20T/L-SDFGRY/S

Departure

Time 2026-04-29 03:46
Airport Sywell Aerodrome (EGBK)

Arrival

Time 2026-04-29 04:40
Airport Farnborough Airport (EGLF)
Time Latitude Longitude Altitude Speed Heading
2026-04-29 03:44 52.30412 -0.78598 423 ft 0 kts 244°
2026-04-29 03:45 52.30410 -0.78604 423 ft 5 kts 244°
2026-04-29 03:45 52.30339 -0.78839 423 ft 42 kts 244°
2026-04-29 03:46 52.30145 -0.79479 440 ft 80 kts 244°
2026-04-29 03:46 52.29933 -0.80299 693 ft 79 kts 256°
2026-04-29 03:46 52.29752 -0.81183 917 ft 86 kts 246°
2026-04-29 03:46 52.29461 -0.82089 1137 ft 96 kts 241°
2026-04-29 03:47 52.29092 -0.83089 1361 ft 107 kts 240°
2026-04-29 03:47 52.28687 -0.84149 1568 ft 117 kts 240°
2026-04-29 03:47 52.28231 -0.85328 1772 ft 126 kts 240°
2026-04-29 03:47 52.27749 -0.86565 1966 ft 133 kts 240°
2026-04-29 03:48 52.27239 -0.87872 2154 ft 137 kts 240°
2026-04-29 03:48 52.26728 -0.89179 2327 ft 134 kts 240°
2026-04-29 03:48 52.26234 -0.90440 2505 ft 130 kts 240°
2026-04-29 03:48 52.25744 -0.91693 2739 ft 134 kts 241°
2026-04-29 03:49 52.25224 -0.93028 2986 ft 144 kts 241°
2026-04-29 03:49 52.24677 -0.94429 3196 ft 151 kts 240°
2026-04-29 03:49 52.24115 -0.95861 3324 ft 144 kts 241°
2026-04-29 03:49 52.23588 -0.97195 3533 ft 136 kts 241°
2026-04-29 03:50 52.23093 -0.98454 3743 ft 129 kts 242°
2026-04-29 03:50 52.22624 -0.99650 3954 ft 123 kts 242°
2026-04-29 03:50 52.22170 -1.00807 4169 ft 118 kts 243°
2026-04-29 03:50 52.21738 -1.01910 4383 ft 114 kts 243°
2026-04-29 03:51 52.21332 -1.02944 4591 ft 110 kts 243°
2026-04-29 03:51 52.20917 -1.04001 4813 ft 106 kts 243°
2026-04-29 03:51 52.20523 -1.05004 5030 ft 102 kts 244°
2026-04-29 03:51 52.20146 -1.05962 5246 ft 99 kts 244°
2026-04-29 03:52 52.19779 -1.06897 5463 ft 96 kts 244°
2026-04-29 03:52 52.19425 -1.07797 5680 ft 93 kts 244°
2026-04-29 03:52 52.19082 -1.08669 5896 ft 90 kts 244°
2026-04-29 03:52 52.18752 -1.09507 6111 ft 87 kts 244°
2026-04-29 03:53 52.18533 -1.10062 6257 ft 85 kts 244°
2026-04-29 03:53 52.18116 -1.11114 6543 ft 82 kts 241°
2026-04-29 03:53 52.17795 -1.11475 6680 ft 91 kts 201°
2026-04-29 03:53 52.17159 -1.11251 6914 ft 92 kts 174°
2026-04-29 03:54 52.16578 -1.10966 7115 ft 82 kts 179°
2026-04-29 03:54 52.16057 -1.10754 7269 ft 77 kts 182°
2026-04-29 03:54 52.15519 -1.10568 7386 ft 77 kts 183°
2026-04-29 03:54 52.14987 -1.10391 7491 ft 79 kts 183°
2026-04-29 03:55 52.14470 -1.10218 7615 ft 78 kts 184°
2026-04-29 03:55 52.13934 -1.10042 7738 ft 77 kts 184°
2026-04-29 03:55 52.13399 -1.09868 7848 ft 78 kts 184°
2026-04-29 03:55 52.12873 -1.09694 7965 ft 78 kts 184°
2026-04-29 03:56 52.12340 -1.09520 8086 ft 78 kts 184°
2026-04-29 03:56 52.11798 -1.09342 8201 ft 78 kts 184°
2026-04-29 03:56 52.11265 -1.09168 8316 ft 79 kts 184°
2026-04-29 03:56 52.10726 -1.08991 8435 ft 79 kts 184°
2026-04-29 03:57 52.10191 -1.08816 8550 ft 79 kts 184°
2026-04-29 03:57 52.09651 -1.08640 8664 ft 79 kts 184°
2026-04-29 03:57 52.09113 -1.08463 8781 ft 79 kts 184°
2026-04-29 03:57 52.08575 -1.08287 8896 ft 79 kts 184°
2026-04-29 03:58 52.08034 -1.08110 9009 ft 80 kts 184°
2026-04-29 03:58 52.07489 -1.07932 9125 ft 80 kts 184°
2026-04-29 03:58 52.06945 -1.07754 9240 ft 80 kts 184°
2026-04-29 03:58 52.06403 -1.07577 9353 ft 80 kts 184°
2026-04-29 03:59 52.05857 -1.07399 9468 ft 80 kts 184°
2026-04-29 03:59 52.05317 -1.07222 9581 ft 80 kts 184°
2026-04-29 03:59 52.04770 -1.07044 9694 ft 80 kts 184°
2026-04-29 03:59 52.04221 -1.06864 9807 ft 80 kts 184°
2026-04-29 04:00 52.03668 -1.06684 9921 ft 81 kts 184°
2026-04-29 04:00 52.03117 -1.06504 10034 ft 81 kts 184°
2026-04-29 04:00 52.02572 -1.06326 10145 ft 81 kts 184°
2026-04-29 04:00 52.02016 -1.06145 10262 ft 81 kts 184°
2026-04-29 04:01 52.01466 -1.05965 10380 ft 81 kts 184°
2026-04-29 04:01 52.00908 -1.05783 10501 ft 81 kts 184°
2026-04-29 04:01 52.00353 -1.05603 10618 ft 81 kts 184°
2026-04-29 04:01 51.99797 -1.05421 10736 ft 82 kts 184°
2026-04-29 04:02 51.99246 -1.05242 10854 ft 82 kts 184°
2026-04-29 04:02 51.98687 -1.05060 10970 ft 82 kts 184°
2026-04-29 04:02 51.98128 -1.04878 11087 ft 82 kts 184°
2026-04-29 04:02 51.97569 -1.04696 11205 ft 82 kts 184°
2026-04-29 04:03 51.97009 -1.04514 11321 ft 82 kts 184°
2026-04-29 04:03 51.96446 -1.04331 11437 ft 82 kts 184°
2026-04-29 04:03 51.95889 -1.04150 11553 ft 83 kts 184°
2026-04-29 04:03 51.95326 -1.03967 11668 ft 83 kts 184°
2026-04-29 04:04 51.94761 -1.03783 11784 ft 83 kts 184°
2026-04-29 04:04 51.94195 -1.03599 11899 ft 83 kts 184°
2026-04-29 04:04 51.93619 -1.03414 11999 ft 86 kts 184°
2026-04-29 04:04 51.92992 -1.03219 12048 ft 98 kts 182°
2026-04-29 04:05 51.92263 -1.02992 12057 ft 115 kts 180°
2026-04-29 04:05 51.91429 -1.02727 12041 ft 132 kts 178°
2026-04-29 04:05 51.90483 -1.02420 12025 ft 144 kts 177°
2026-04-29 04:05 51.89457 -1.02084 12015 ft 154 kts 176°
2026-04-29 04:06 51.88391 -1.01733 12010 ft 160 kts 176°
2026-04-29 04:06 51.87270 -1.01365 12007 ft 165 kts 176°
2026-04-29 04:06 51.86130 -1.00990 12004 ft 169 kts 176°
2026-04-29 04:06 51.84992 -1.00903 12004 ft 163 kts 194°
2026-04-29 04:07 51.83891 -1.01294 12004 ft 162 kts 202°
2026-04-29 04:07 51.82807 -1.01838 12002 ft 163 kts 205°
2026-04-29 04:07 51.81741 -1.02432 12000 ft 163 kts 206°
2026-04-29 04:07 51.80651 -1.03066 12029 ft 171 kts 207°
2026-04-29 04:08 51.79505 -1.03752 11951 ft 177 kts 206°
2026-04-29 04:08 51.78373 -1.04425 11987 ft 172 kts 207°
2026-04-29 04:08 51.77258 -1.05091 11996 ft 170 kts 207°
2026-04-29 04:08 51.76165 -1.05746 11998 ft 168 kts 207°
2026-04-29 04:09 51.75064 -1.06409 11999 ft 167 kts 207°
2026-04-29 04:09 51.73974 -1.07067 11999 ft 167 kts 207°
2026-04-29 04:09 51.72888 -1.07722 12000 ft 166 kts 207°
2026-04-29 04:09 51.71808 -1.08375 12000 ft 166 kts 207°
2026-04-29 04:10 51.70738 -1.09020 12000 ft 166 kts 207°
2026-04-29 04:10 51.69654 -1.09674 12000 ft 166 kts 207°
2026-04-29 04:10 51.68582 -1.10320 12000 ft 165 kts 207°
2026-04-29 04:10 51.67501 -1.10971 12000 ft 165 kts 207°
2026-04-29 04:11 51.66420 -1.11622 12000 ft 165 kts 207°
2026-04-29 04:11 51.65340 -1.12272 12000 ft 165 kts 207°
2026-04-29 04:11 51.64254 -1.12925 12000 ft 165 kts 207°
2026-04-29 04:11 51.63195 -1.13562 12000 ft 165 kts 207°
2026-04-29 04:12 51.62108 -1.14215 12000 ft 165 kts 207°
2026-04-29 04:12 51.61029 -1.14863 12000 ft 165 kts 207°
2026-04-29 04:12 51.59956 -1.15507 12000 ft 165 kts 207°
2026-04-29 04:12 51.58887 -1.16149 12000 ft 165 kts 207°
2026-04-29 04:13 51.57807 -1.16796 12000 ft 165 kts 207°
2026-04-29 04:13 51.56730 -1.17441 12000 ft 165 kts 207°
2026-04-29 04:13 51.55652 -1.18087 12000 ft 165 kts 207°
2026-04-29 04:13 51.54582 -1.18728 12000 ft 165 kts 207°
2026-04-29 04:14 51.53497 -1.19377 12000 ft 165 kts 207°
2026-04-29 04:14 51.52424 -1.20018 12000 ft 165 kts 207°
2026-04-29 04:14 51.51348 -1.20662 12000 ft 165 kts 207°
2026-04-29 04:14 51.50265 -1.21306 12000 ft 166 kts 206°
2026-04-29 04:15 51.49096 -1.21462 12002 ft 176 kts 178°
2026-04-29 04:15 51.47909 -1.20887 12005 ft 180 kts 165°
2026-04-29 04:15 51.46756 -1.20080 12002 ft 182 kts 161°
2026-04-29 04:15 51.45599 -1.19190 12000 ft 182 kts 160°
2026-04-29 04:16 51.44480 -1.18308 12000 ft 183 kts 160°
2026-04-29 04:16 51.43336 -1.17404 12000 ft 183 kts 160°
2026-04-29 04:16 51.42190 -1.16498 12000 ft 183 kts 160°
2026-04-29 04:16 51.41063 -1.15610 12000 ft 183 kts 160°
2026-04-29 04:17 51.39920 -1.14711 12000 ft 183 kts 160°
2026-04-29 04:17 51.38759 -1.13800 12000 ft 183 kts 160°
2026-04-29 04:17 51.37671 -1.12946 12000 ft 183 kts 160°
2026-04-29 04:17 51.36491 -1.12020 12000 ft 183 kts 160°
2026-04-29 04:18 51.35389 -1.10975 11999 ft 187 kts 148°
2026-04-29 04:18 51.34446 -1.09529 12001 ft 190 kts 136°
2026-04-29 04:18 51.33614 -1.07883 12001 ft 191 kts 131°
2026-04-29 04:18 51.32846 -1.06171 12000 ft 192 kts 129°
2026-04-29 04:19 51.32088 -1.04396 12000 ft 192 kts 128°
2026-04-29 04:19 51.31334 -1.02621 12000 ft 192 kts 128°
2026-04-29 04:19 51.30584 -1.00866 12000 ft 192 kts 128°
2026-04-29 04:19 51.29832 -0.99109 12000 ft 192 kts 128°
2026-04-29 04:20 51.29078 -0.97353 12000 ft 192 kts 128°
2026-04-29 04:20 51.28323 -0.95597 12000 ft 192 kts 128°
2026-04-29 04:20 51.27570 -0.93847 12000 ft 192 kts 128°
2026-04-29 04:20 51.26810 -0.92081 12000 ft 192 kts 128°
2026-04-29 04:21 51.26060 -0.90341 12000 ft 192 kts 128°
2026-04-29 04:21 51.25288 -0.88553 11924 ft 196 kts 128°
2026-04-29 04:21 51.24504 -0.86703 11693 ft 208 kts 124°
2026-04-29 04:21 51.23851 -0.84609 11405 ft 219 kts 115°
2026-04-29 04:22 51.23312 -0.82281 11109 ft 226 kts 110°
2026-04-29 04:22 51.22844 -0.79862 10811 ft 230 kts 108°
2026-04-29 04:22 51.22414 -0.77412 10515 ft 232 kts 107°
2026-04-29 04:22 51.21993 -0.74915 10215 ft 233 kts 106°
2026-04-29 04:23 51.21577 -0.72419 9915 ft 233 kts 106°
2026-04-29 04:23 51.21289 -0.69883 9614 ft 234 kts 92°
2026-04-29 04:23 51.21479 -0.67331 9318 ft 233 kts 74°
2026-04-29 04:23 51.22055 -0.64903 9016 ft 230 kts 61°
2026-04-29 04:24 51.22873 -0.62749 8720 ft 227 kts 51°
2026-04-29 04:24 51.23829 -0.60841 8427 ft 223 kts 45°
2026-04-29 04:24 51.24900 -0.58993 8121 ft 220 kts 42°
2026-04-29 04:24 51.26013 -0.57344 7821 ft 217 kts 35°
2026-04-29 04:25 51.27220 -0.55937 7522 ft 214 kts 28°
2026-04-29 04:25 51.28544 -0.54990 7222 ft 206 kts
2026-04-29 04:25 51.29941 -0.54794 6926 ft 199 kts 353°
2026-04-29 04:25 51.31282 -0.55030 6652 ft 191 kts 344°
2026-04-29 04:26 51.32565 -0.55475 6352 ft 186 kts 340°
2026-04-29 04:26 51.33780 -0.56090 6045 ft 179 kts 328°
2026-04-29 04:26 51.34560 -0.57509 5744 ft 171 kts 291°
2026-04-29 04:26 51.34551 -0.59383 5442 ft 172 kts 252°
2026-04-29 04:27 51.33817 -0.60888 5163 ft 176 kts 227°
2026-04-29 04:27 51.32932 -0.62210 4866 ft 176 kts 230°
2026-04-29 04:27 51.32181 -0.63726 4503 ft 178 kts 240°
2026-04-29 04:27 51.31554 -0.65502 4119 ft 179 kts 246°
2026-04-29 04:28 51.30989 -0.67282 3746 ft 181 kts 246°
2026-04-29 04:28 51.30405 -0.69082 3371 ft 183 kts 245°
2026-04-29 04:28 51.29813 -0.70879 3018 ft 184 kts 245°
2026-04-29 04:28 51.29249 -0.72762 2579 ft 187 kts 255°
2026-04-29 04:29 51.29313 -0.74753 2209 ft 181 kts 292°
2026-04-29 04:29 51.30119 -0.76146 2043 ft 169 kts 333°
2026-04-29 04:29 51.31232 -0.76288 2004 ft 158 kts 15°
2026-04-29 04:29 51.32025 -0.75205 1997 ft 153 kts 60°
2026-04-29 04:30 51.32087 -0.73552 2003 ft 150 kts 104°
2026-04-29 04:30 51.31684 -0.72050 1992 ft 147 kts 115°
2026-04-29 04:30 51.30715 -0.69054 2004 ft 150 kts 116°
2026-04-29 04:31 51.30252 -0.67647 2179 ft 135 kts 116°
2026-04-29 04:31 51.29832 -0.66371 2350 ft 125 kts 116°
2026-04-29 04:31 51.29442 -0.65189 2522 ft 116 kts 116°
2026-04-29 04:31 51.29078 -0.64084 2693 ft 109 kts 116°
2026-04-29 04:32 51.28731 -0.63032 2847 ft 106 kts 116°
2026-04-29 04:32 51.28389 -0.61994 2964 ft 106 kts 116°
2026-04-29 04:32 51.28031 -0.60907 3017 ft 114 kts 116°
2026-04-29 04:32 51.27647 -0.59741 3023 ft 123 kts 116°
2026-04-29 04:33 51.27239 -0.58509 3017 ft 131 kts 116°
2026-04-29 04:33 51.26807 -0.57191 3009 ft 137 kts 113°
2026-04-29 04:33 51.26783 -0.55713 2997 ft 134 kts 62°
2026-04-29 04:33 51.27460 -0.54850 3002 ft 126 kts
2026-04-29 04:34 51.28332 -0.54721 3015 ft 127 kts
2026-04-29 04:34 51.29213 -0.54477 3003 ft 129 kts
2026-04-29 04:34 51.30093 -0.54599 3004 ft 128 kts 348°
2026-04-29 04:34 51.30973 -0.54894 3002 ft 129 kts 345°
2026-04-29 04:35 51.31842 -0.55234 2983 ft 130 kts 344°
2026-04-29 04:35 51.32751 -0.55603 2842 ft 139 kts 344°
2026-04-29 04:35 51.33725 -0.56001 2607 ft 150 kts 344°
2026-04-29 04:35 51.34598 -0.56817 2396 ft 144 kts 310°
2026-04-29 04:36 51.34801 -0.58296 2215 ft 137 kts 261°
2026-04-29 04:36 51.34250 -0.59478 2133 ft 131 kts 222°
2026-04-29 04:36 51.33580 -0.60400 2097 ft 124 kts 227°
2026-04-29 04:36 51.33046 -0.61426 2089 ft 117 kts 237°
2026-04-29 04:37 51.32616 -0.62518 2003 ft 119 kts 243°
2026-04-29 04:37 51.32345 -0.63296 1894 ft 117 kts 244°
2026-04-29 04:37 51.31837 -0.64814 1673 ft 116 kts 244°
2026-04-29 04:37 51.31460 -0.65952 1542 ft 114 kts 244°
2026-04-29 04:38 51.31101 -0.67035 1490 ft 107 kts 244°
2026-04-29 04:38 51.30755 -0.68080 1367 ft 110 kts 244°
2026-04-29 04:38 51.30511 -0.68812 1245 ft 113 kts 243°
2026-04-29 04:38 51.30015 -0.70296 1040 ft 113 kts 243°
2026-04-29 04:39 51.29763 -0.71050 991 ft 116 kts 243°
2026-04-29 04:39 51.29373 -0.72218 803 ft 120 kts 242°
2026-04-29 04:39 51.29001 -0.73330 740 ft 111 kts 242°
2026-04-29 04:39 51.28642 -0.74408 631 ft 107 kts 242°
2026-04-29 04:40 51.28340 -0.75315 495 ft 82 kts 243°
2026-04-29 04:40 51.28141 -0.76060 243 ft 76 kts 249°
2026-04-29 04:40 51.28004 -0.76642 242 ft 46 kts 249°
2026-04-29 04:40 51.27940 -0.77034 242 ft 27 kts 274°
2026-04-29 04:41 51.27949 -0.77257 242 ft 13 kts 274°
2026-04-29 04:41 51.27952 -0.77331 242 ft 0 kts 274°